Regional Weather Roundup
Issued by NWS Goodland, KS

Home | Current Version | Previous Version | Graphics & Text | Print | Product List | Glossary On
Versions: 1 2 3 4 5 6 7 8 9 10 11 12 13 14 15 16 17 18 19 20 21 22 23 24 25 26 27 28 29 30 31 32 33 34 35 36 37 38 39 40 41 42 43 44 45 46 47 48 49 50
000
ASUS43 KGLD 220408
RWRGLD

GOODLAND FORECAST AREA HOURLY WEATHER ROUNDUP
NATIONAL WEATHER SERVICE GOODLAND KS
900 PM MST SUN JAN 21 2018

...OFFICIAL OBSERVATIONS...

CITY           SKY/WX    TMP DP  RH WIND       PRES   REMARKS
GOODLAND KS    FOG       27  25  92 NW35G52   29.70F VSB 1/4 WCI  10
HILL CITY KS   LGT RAIN  33  33 100 N13       29.59R FOG
IMPERIAL NEB   CLOUDY    28  27  96 N29G41    29.77R FOG     WCI  12
MCCOOK NEB     LGT SNOW  30  30 100 N25G37    29.66F VSB 3/4 WCI  16
AKRON CO       FOG       23  22  96 NW32      29.86S VSB 1/2 WCI   5
BURLINGTON CO  FOG       25  23  92 NW28G44   29.77R VSB 1/2 WCI   9
LIMON CO       LGT SNOW  21  20  96 NW31G43   29.85S VSB 1   WCI   2
$$

...UNOFFICIAL OBSERVATIONS...

CITY           SKY/WX    TMP DP  RH WIND       PRES   REMARKS
COLBY KS       LGT SNOW  30  30 100 NW14      29.67S WCI  20
NORTON KS      MIX PCPN  34  28  80 N16       29.59
SHARON SPRINGS   N/A     27  26  95 W28G37      N/A  WCI  12
TRIBUNE KS     CLOUDY    30  28  93 NW29      29.75R VSB 1   WCI  15
KIT CARSON CO    N/A     25  22  89 MISG        N/A
YUMA CO        LGT SNOW  27  23  86 NW23G30   29.83F WCI  12
$$




USA.gov is the U.S. government's official web portal to all federal, state and local government web resources and services.